Theta_e
324 324 324 323 323 323 323 322 322 322 321 320 319 318 317 317 318 320 318 317 316 317 317 315 314 316 315 314 313 313 312 312 308 312 318 321 321 322 325 327 331 335 335
321 322 322 322 321 322 321 321 321 320 319 318 318 316 315 315 316 316 315 314 313 312 312 313 313 312 314 315 313 312 310 311 308 308 312 315 320 323 324 326 325 329 330
322 320 320 320 320 320 320 320 320 319 318 317 317 316 315 314 313 314 314 313 313 312 311 311 312 311 310 309 310 311 311 310 310 308 309 313 315 317 319 323 326 328 327
320 319 319 320 320 320 320 319 319 318 317 317 316 315 314 313 313 313 313 314 313 312 312 310 309 309 308 309 309 310 311 310 311 309 309 310 312 315 316 319 319 320 320
319 318 319 320 320 320 319 318 318 318 317 317 316 315 314 313 312 313 312 313 313 312 310 310 310 309 308 309 309 310 311 309 308 305 307 308 307 309 312 316 315 314 310
320 318 319 319 319 318 318 318 318 317 317 316 315 314 314 311 302 303 306 313 312 310 309 309 309 307 309 308 307 307 307 305 305 306 305 307 309 311 311 314 311 306 303
319 318 316 316 315 316 318 317 317 317 317 316 315 315 314 314 303 303 303 310 311 310 310 308 308 308 309 309 308 306 305 306 306 305 304 308 306 307 307 307 307 307 303
319 318 318 317 316 316 316 317 317 318 317 316 315 315 315 314 303 302 303 309 311 309 309 310 309 309 309 307 310 307 304 305 305 306 305 310 306 308 309 308 306 302 303
320 320 319 318 317 316 315 316 318 317 317 316 315 314 314 314 304 302 304 310 309 309 309 310 310 308 301 300 308 304 304 305 307 306 305 304 303 303 305 306 301 299 298
319 322 322 321 319 318 318 317 317 318 316 314 314 315 312 314 302 301 304 309 307 308 308 310 305 306 300 299 307 307 303 302 304 304 306 306 306 307 307 307 306 302 301
320 320 321 323 323 321 320 319 318 317 316 314 314 314 314 313 311 300 300 309 307 306 305 306 309 302 299 298 298 305 304 303 305 305 307 306 306 307 307 307 308 306 304
320 319 318 319 319 321 321 319 318 316 314 313 313 312 312 314 304 300 299 299 305 308 305 308 307 300 298 297 300 301 298 300 306 307 305 305 307 308 308 308 310 310 309
314 317 318 318 316 318 318 318 315 314 311 311 310 309 309 311 312 300 299 298 299 305 309 304 299 297 297 299 299 299 298 308 308 309 305 309 312 310 314 314 314 314 314
313 313 314 315 314 314 313 315 311 313 311 310 309 308 309 309 310 310 307 306 299 303 304 307 305 303 297 300 303 308 312 312 310 308 308 309 311 311 310 313 309 312 309
313 313 311 311 312 311 310 311 310 312 311 310 309 309 308 308 309 306 306 309 309 306 308 310 308 308 309 310 311 311 312 311 310 311 310 309 308 307 307 310 308 307 306
310 312 311 308 308 309 307 307 302 301 299 298 297 305 309 301 297 297 298 296 296 296 305 307 308 309 308 309 309 310 311 309 311 312 311 310 309 308 308 309 309 307 305
310 311 314 306 307 306 306 307 304 303 295 296 296 295 295 301 295 295 295 294 293 293 304 307 308 309 309 310 310 310 309 310 313 312 311 310 310 310 308 308 309 309 308
305 301 311 312 307 306 306 306 308 304 303 304 296 297 294 294 293 293 293 292 304 300 307 309 309 310 311 311 312 311 311 311 311 311 311 311 311 310 309 309 309 308 308
300 302 307 308 312 308 307 306 306 307 307 309 308 298 296 293 292 292 291 307 307 307 309 309 310 311 312 312 313 313 312 310 309 309 310 310 310 310 309 308 308 295 299
296 297 297 303 308 309 306 305 307 309 310 309 308 308 309 301 304 305 304 306 307 308 310 311 312 313 313 312 313 313 312 310 310 309 309 308 308 308 307 307 307 306 307
290 296 292 299 306 307 305 305 304 305 307 308 309 308 298 309 307 307 307 307 308 308 309 310 311 312 313 313 313 312 312 310 311 311 311 311 310 308 309 308 308 309 309
288 289 291 292 294 292 300 305 305 303 305 307 309 308 290 310 310 309 309 309 310 311 312 313 312 313 313 313 312 312 312 311 312 313 313 313 313 312 311 309 309 309 310
288 288 287 287 288 287 288 288 288 289 289 290 292 295 300 305 309 309 310 310 307 312 314 312 313 313 315 315 315 314 313 313 313 314 313 313 313 313 312 311 310 309 309
292 289 288 287 286 286 286 285 285 285 285 285 286 286 287 288 290 293 295 298 300 303 305 305 309 312 314 316 316 316 316 316 316 316 316 315 314 311 313 312 312 311 310
292 292 291 290 288 288 288 287 286 285 285 285 285 285 286 286 287 288 289 290 291 292 294 296 300 302 305 308 309 312 309 293 308 298 316 316 315 315 313 312 312 310 310
292 290 289 289 289 290 289 290 290 289 288 288 288 289 288 288 289 288 288 289 290 290 291 293 295 296 296 299 301 290 287 289 301 289 309 312 312 312 312 311 310 309 307
Wind_Speed
8 7 7 7 8 8 8 8 8 8 8 7 7 6 5 4 3 2 1 1 1 2 3 4 5 5 6 6 5 6 7 8 10 11 12 12 15 12 11 12 10 11 11
7 7 7 7 8 8 8 8 9 9 8 7 7 6 5 5 4 2 1 2 3 4 5 6 7 6 8 8 7 9 10 9 11 14 13 14 15 14 15 16 9 8 10
9 9 9 10 9 9 9 9 9 8 8 7 7 7 6 6 5 3 1 1 2 3 4 6 7 8 8 9 10 11 10 9 11 11 11 12 14 14 14 13 13 12 8
11 11 11 12 11 11 11 10 10 9 8 7 7 6 6 6 5 3 2 1 2 3 4 5 6 7 9 12 11 12 12 11 11 12 11 9 12 15 13 10 9 6 9
12 13 12 12 12 11 11 11 10 10 9 8 8 7 7 6 5 4 4 1 2 3 3 5 4 6 9 12 10 12 14 9 9 10 12 11 11 13 14 11 9 4 2
14 14 13 13 13 13 12 12 11 11 10 9 9 8 8 7 12 4 5 3 3 3 3 4 6 5 9 9 16 16 12 9 11 10 11 13 15 14 12 11 8 2 3
15 15 13 13 14 14 14 13 13 12 11 10 9 9 9 8 13 9 6 7 4 3 4 5 5 4 7 9 9 12 12 13 13 10 11 13 13 12 12 12 5 5 2
17 16 16 16 16 15 15 15 13 12 12 11 10 10 9 7 13 12 10 9 6 4 4 3 4 5 5 10 11 5 7 7 9 7 9 11 9 11 11 9 1 3 4
17 18 18 17 17 17 17 16 14 12 11 11 10 10 10 9 12 11 11 11 7 6 4 4 5 4 4 9 8 8 7 7 9 11 12 12 12 12 13 3 3 5 2
14 14 17 18 18 18 17 16 14 12 12 10 11 10 8 10 14 12 12 8 6 7 5 5 8 7 4 3 6 8 9 9 12 11 8 6 9 9 13 8 3 2 3
10 11 13 17 18 19 17 15 14 13 11 12 11 11 11 11 11 14 14 10 6 6 6 5 6 8 7 6 5 6 8 10 11 8 5 3 5 6 4 6 6 4 3
11 9 10 13 13 15 18 16 15 14 13 13 12 11 10 10 8 12 14 15 4 6 5 4 3 8 8 7 8 9 8 10 3 4 2 2 3 4 3 1 2 2 4
11 11 13 13 13 14 15 17 14 15 13 13 12 11 10 10 9 11 13 14 12 9 7 3 2 4 7 11 17 13 10 7 4 5 5 2 5 5 3 3 4 4 5
13 10 11 11 12 12 11 12 11 14 14 13 13 12 11 9 9 11 10 10 14 12 11 10 9 7 9 11 9 11 8 4 5 5 7 6 4 4 5 1 4 2 3
15 11 9 9 10 11 13 12 13 12 12 13 13 13 12 12 10 10 11 11 11 12 9 9 10 9 8 9 7 6 6 5 6 4 5 4 5 4 5 3 4 5 5
16 12 7 7 8 9 10 9 8 6 10 10 8 12 11 6 17 13 9 5 2 8 8 8 9 8 8 7 7 6 6 6 7 6 5 5 5 4 4 4 4 4 4
16 14 9 7 7 9 10 11 12 9 1 8 11 10 9 9 13 14 12 9 6 6 10 10 9 9 9 8 7 7 7 5 5 7 7 6 5 5 4 6 5 6 6
15 15 10 7 7 8 8 8 9 11 12 10 11 14 11 7 11 12 11 8 8 9 11 11 11 10 10 9 8 8 7 7 7 8 8 8 7 7 7 7 7 7 7
14 9 9 7 8 9 7 10 9 10 11 14 15 15 18 14 11 12 14 11 12 13 13 13 12 12 11 10 9 9 9 9 8 8 8 9 9 9 10 10 10 8 8
12 15 12 9 10 10 6 6 7 10 11 13 12 14 15 14 13 13 13 13 13 13 13 13 12 12 12 11 10 10 10 10 10 10 10 10 9 9 10 11 10 11 10
10 9 7 9 10 8 7 8 7 7 8 11 13 13 12 15 16 15 14 14 15 15 15 15 13 13 12 12 12 11 11 11 10 10 10 10 10 9 10 10 11 11 11
9 9 8 8 7 8 5 4 6 6 9 9 9 12 11 12 12 13 14 15 15 15 13 13 13 13 13 12 12 12 12 12 11 11 11 11 10 10 10 11 11 11 12
11 11 10 10 9 10 9 11 9 9 8 10 10 11 6 0 3 2 5 5 7 7 6 7 10 11 10 11 12 12 12 12 12 12 12 11 11 11 11 12 13 13 12
11 12 12 11 11 11 11 11 10 12 10 9 9 9 9 10 10 9 8 8 8 8 8 9 9 11 14 13 12 12 12 13 12 12 14 13 12 12 13 13 13 13 13
11 11 11 11 11 10 10 10 8 9 8 8 8 8 7 7 7 7 8 8 8 8 10 11 10 13 14 18 17 22 20 4 9 8 10 13 14 16 14 12 11 12 13
12 13 12 11 11 11 10 9 9 10 9 9 9 9 9 8 7 7 6 7 6 6 8 8 10 15 17 14 17 16 16 13 10 7 12 14 13 12 12 14 16 11 11
Wind_Direction
165 160 162 161 160 161 156 152 153 151 153 151 148 141 128 119 102 93 75 26 333 331 316 296 300 292 302 290 297 288 281 275 277 285 277 268 272 282 285 281 278 265 248
182 175 181 178 173 171 165 160 161 161 161 154 153 148 145 144 145 140 87 6 339 331 328 308 309 314 306 295 287 286 287 288 289 291 299 296 286 281 278 280 269 261 254
189 188 189 195 189 184 174 170 174 169 169 170 170 169 166 162 158 145 110 12 344 339 328 323 328 332 316 312 300 297 291 281 279 283 290 298 298 295 288 273 272 266 253
192 202 196 202 199 189 180 180 181 182 180 181 185 181 176 173 170 170 153 118 357 356 339 340 325 326 322 323 310 303 287 282 286 288 293 296 296 299 284 276 271 257 269
202 206 206 202 201 194 189 186 186 189 191 193 190 194 186 188 186 186 172 159 304 319 1 324 1 345 319 324 309 314 317 298 298 295 297 305 308 294 285 277 270 264 235
215 212 208 203 200 199 196 192 192 196 195 201 205 201 196 217 120 192 283 238 267 317 334 340 333 1 357 9 7 350 334 316 303 309 309 301 310 307 294 280 277 199 252
217 218 209 207 209 201 198 198 198 200 198 204 209 210 210 209 156 191 213 253 255 295 302 320 342 20 314 343 329 344 349 353 340 317 303 306 318 305 301 294 227 230 196
225 221 213 206 209 204 201 201 203 203 208 212 206 215 216 203 161 186 201 241 246 260 292 331 304 325 5 331 327 326 320 324 327 327 319 322 325 328 297 280 204 81 92
230 223 221 210 208 206 205 201 202 205 208 212 213 211 210 202 164 185 200 223 234 244 259 236 291 333 14 348 346 3 324 322 329 318 316 319 318 345 1 44 99 118 73
236 233 225 218 212 210 207 201 199 202 208 211 212 211 201 217 160 182 202 233 203 230 215 223 188 284 323 344 342 335 344 325 325 318 315 326 328 358 4 12 46 80 100
252 249 226 222 214 214 208 202 199 197 206 210 213 207 210 209 174 177 197 243 216 217 243 219 214 169 233 243 284 299 307 316 312 309 339 293 311 330 357 10 24 22 48
271 250 247 230 217 215 207 200 200 193 201 208 214 214 207 210 204 178 187 222 275 237 248 221 157 168 232 237 264 247 271 295 277 304 302 313 44 60 102 339 337 13 55
278 267 250 232 216 215 206 202 194 191 200 204 209 209 209 193 195 171 184 204 227 250 238 106 117 236 249 248 237 256 262 257 275 254 289 222 172 208 240 210 190 198 200
271 269 264 229 216 208 207 210 201 194 194 204 209 203 204 195 194 170 192 199 223 217 236 249 239 251 293 292 287 255 244 287 310 303 301 313 294 250 270 275 309 279 267
270 264 249 254 221 207 213 207 202 208 190 202 208 203 193 193 190 179 175 188 198 202 203 224 209 219 228 243 249 257 251 258 239 254 271 281 277 278 278 258 258 269 256
271 264 247 231 222 215 206 208 264 290 190 204 268 222 193 146 150 157 177 224 52 137 209 236 232 236 243 255 268 269 255 197 238 242 247 242 260 266 252 219 227 247 251
297 268 253 220 218 220 213 203 183 210 261 211 211 251 244 169 152 161 172 193 159 159 235 250 239 244 246 248 252 262 266 256 236 254 258 254 254 253 215 245 238 236 237
300 318 273 250 221 217 221 211 202 180 194 201 226 224 231 204 165 170 159 158 201 218 244 238 241 235 246 251 249 244 250 249 234 240 255 255 255 255 259 253 250 252 264
297 287 276 271 257 229 213 212 205 207 188 202 205 199 212 211 194 166 166 223 224 232 222 226 241 251 245 250 253 253 252 253 255 254 244 247 252 254 254 255 260 256 267
298 281 277 271 265 239 226 224 221 217 220 221 210 203 195 192 205 206 204 216 227 240 248 244 240 235 237 247 248 243 248 241 237 237 243 253 251 251 259 264 263 264 263
332 319 291 274 262 248 206 220 228 252 257 214 212 210 194 186 204 208 211 209 220 229 235 241 244 240 235 240 247 247 247 242 238 245 247 243 241 247 244 252 260 264 266
350 352 4 23 25 26 311 223 228 243 244 259 226 201 165 210 208 205 213 219 215 221 234 242 246 247 246 249 255 242 236 245 248 245 245 246 248 245 247 253 257 259 261
4 8 19 30 33 45 39 48 41 51 40 47 34 32 16 31 265 327 347 19 5 341 321 312 269 263 271 269 262 261 261 250 244 249 253 251 248 249 250 250 255 258 262
20 19 24 26 32 38 40 45 42 44 45 45 54 49 40 41 36 30 20 9 358 342 332 327 312 313 314 294 271 267 259 252 258 263 253 253 255 247 249 259 262 264 267
26 23 21 28 30 31 34 38 43 39 42 42 45 48 43 36 36 29 21 16 1 349 339 328 318 311 307 302 299 310 301 289 277 297 281 261 257 260 261 263 252 257 260
25 29 28 28 26 33 32 36 44 50 43 40 37 41 42 40 37 30 16 16 359 345 344 331 322 317 313 306 301 338 325 310 265 226 258 260 257 253 253 253 252 248 244